This demonstration page uses our WeatherBlox Daily Observations layout. Learn more.

Left ArrowRight Arrow

36.19886, -115.1175

Hourly Observations for April 16, 2021

Temp ( °F °C ) Dew Point ( °F °C ) Humidity (%) Winds ( mph kmh ) Pressure ( in mb ) Visibility ( mi km ) Precip ( " mm )
12:53 am 00:53 Clear 62 16.7 18 -7.8 18 18 W 6 9 29.91 1013 10 16 N/A
1:53 am 01:53 Clear 61 16.1 17 -8.3 18 18 NNE 5 7 29.91 1013 10 16 N/A
2:53 am 02:53 Clear 60 15.6 17 -8.3 19 19 NNW 5 7 29.90 1013 10 16 N/A
3:53 am 03:53 Clear 59 15 18 -7.8 20 20 N N/A 29.91 1013 10 16 N/A
4:53 am 04:53 Clear 56 13.3 18 -7.8 22 22 WNW 3 6 29.90 1013 10 16 N/A
5:53 am 05:53 Clear 56 13.3 20 -6.7 24 24 W 5 7 29.91 1013 10 16 N/A
6:53 am 06:53 Sunny 59 15 17 -8.3 19 19 NNW 12 19 29.92 1013 10 16 N/A
7:53 am 07:53 Sunny 61 16.1 19 -7.2 20 20 N N/A 29.94 1014 10 16 N/A
8:53 am 08:53 Sunny 64 17.8 19 -7.2 18 18 N N/A 29.94 1014 10 16 N/A
9:53 am 09:53 Sunny 67 19.4 21 -6.1 17 17 ENE 10 17 29.94 1014 10 16 N/A
10:53 am 10:53 Sunny 69 20.6 23 -5 17 17 E 8 13 29.93 1014 10 16 N/A
11:53 am 11:53 Sunny 70 21.1 22 -5.6 16 16 E 7 11 29.92 1013 10 16 N/A
12:53 pm 12:53 Sunny 72 22.2 20 -6.7 14 14 VRB 3 6 29.89 1012 10 16 N/A
1:53 pm 13:53 Sunny 74 23.3 20 -6.7 13 13 N N/A 29.87 1011 10 16 N/A
2:53 pm 14:53 Sunny 75 23.9 20 -6.7 12 12 undefined N/A 29.85 1011 10 16 N/A
3:53 pm 15:53 Sunny 77 25 19 -7.2 11 11 undefined N/A 29.82 1010 10 16 N/A
4:53 pm 16:53 Sunny 75 23.9 18 -7.8 11 11 VRB 3 6 29.82 1010 10 16 N/A
5:53 pm 17:53 Partly Cloudy 75 23.9 19 -7.2 12 12 ENE 13 20 29.82 1010 10 16 N/A
6:53 pm 18:53 Sunny 73 22.8 20 -6.7 13 13 NE 10 17 29.84 1011 10 16 N/A
7:53 pm 19:53 Partly Cloudy 71 21.7 26 -3.3 19 19 ENE 15 24 29.87 1012 10 16 N/A
8:53 pm 20:53 Mostly Cloudy 69 20.6 28 -2.2 22 22 NE 12 19 29.90 1013 10 16 N/A
9:53 pm 21:53 Mostly Clear 68 20 28 -2.2 22 22 NE 18 30 29.91 1013 10 16 N/A
10:53 pm 22:53 Partly Cloudy 66 18.9 29 -1.7 25 25 NNE 18 30 29.92 1013 10 16 N/A
11:53 pm 23:53 Clear 65 18.3 28 -2.2 25 25 NE 16 26 29.95 1014 10 16 N/A

Powered by AerisWeather